EN

Hourly Weather Altud

Today, 21 January, Thursday

Time Temperature Precipitation Wind Pressure Humidity
00:00 -7°C° 0 mm 2 mps 747 mmHg 86%
01:00 -7°C° 0 mm 2 mps 748 mmHg 83%
02:00 -7°C° 0 mm 2 mps 748 mmHg 80%
03:00 -8°C° 0 mm 2 mps 749 mmHg 76%
04:00 -7°C° 0 mm 1 mps 749 mmHg 74%
05:00 -7°C° 0 mm 1 mps 749 mmHg 72%
06:00 -7°C° 0 mm 1 mps 749 mmHg 70%
07:00 -7°C° 0 mm 1 mps 749 mmHg 67%
08:00 -6°C° 0 mm 1 mps 749 mmHg 65%
09:00 -6°C° 0 mm 1 mps 749 mmHg 62%
10:00 -3°C° 0 mm 1 mps 750 mmHg 59%
11:00 -2°C° 0 mm 1 mps 750 mmHg 56%
12:00 -1°C° 0 mm 1 mps 750 mmHg 54%
13:00 0°C° 0 mm 1 mps 750 mmHg 54%
14:00 0°C° 0 mm 1 mps 750 mmHg 55%
15:00 +1°C° 0 mm 1 mps 749 mmHg 55%
16:00 0°C° 0 mm 1 mps 750 mmHg 59%
17:00 -1°C° 0 mm 1 mps 751 mmHg 63%
18:00 -2°C° 0 mm 1 mps 751 mmHg 67%
19:00 -5°C° 0 mm 2 mps 751 mmHg 66%
20:00 -5°C° 0 mm 2 mps 751 mmHg 66%
21:00 -5°C° 0 mm 2 mps 752 mmHg 66%
22:00 -5°C° 0 mm 2 mps 752 mmHg 64%
23:00 -5°C° 0 mm 2 mps 752 mmHg 62%

Tomorrow, 22 January, Friday

Time Temperature Precipitation Wind Pressure Humidity
00:00 -4°C° 0 mm 2 mps 752 mmHg 60%
01:00 -4°C° 0 mm 2 mps 751 mmHg 58%
02:00 -4°C° 0 mm 2 mps 751 mmHg 56%
03:00 -4°C° 0 mm 2 mps 751 mmHg 54%
04:00 -4°C° 0 mm 2 mps 751 mmHg 53%
05:00 -4°C° 0 mm 2 mps 751 mmHg 52%
06:00 -4°C° 0 mm 2 mps 750 mmHg 51%
07:00 -3°C° 0 mm 2 mps 750 mmHg 50%
08:00 -2°C° 0 mm 2 mps 750 mmHg 50%
09:00 -1°C° 0 mm 2 mps 750 mmHg 50%
10:00 +1°C° 0 mm 2 mps 750 mmHg 50%
11:00 +3°C° 0 mm 2 mps 749 mmHg 50%
12:00 +6°C° 0 mm 1 mps 749 mmHg 50%
13:00 +6°C° 0 mm 1 mps 749 mmHg 50%
14:00 +6°C° 0 mm 1 mps 748 mmHg 51%
15:00 +6°C° 0 mm 1 mps 748 mmHg 52%
16:00 +5°C° 0 mm 1 mps 748 mmHg 53%
17:00 +3°C° 0 mm 1 mps 748 mmHg 55%
18:00 +2°C° 0 mm 1 mps 748 mmHg 56%
19:00 +1°C° 0 mm 1 mps 748 mmHg 57%
20:00 +1°C° 0 mm 1 mps 748 mmHg 58%
21:00 +1°C° 0 mm 1 mps 748 mmHg 60%
22:00 0°C° 0 mm 1 mps 748 mmHg 59%
23:00 0°C° 0 mm 1 mps 748 mmHg 59%

Day after tomorrow, 23 January, Saturday

Time Temperature Precipitation Wind Pressure Humidity
00:00 0°C° 0 mm 1 mps 748 mmHg 59%
01:00 0°C° 0 mm 1 mps 748 mmHg 58%
02:00 0°C° 0 mm 1 mps 747 mmHg 58%
03:00 0°C° 0 mm 1 mps 747 mmHg 58%
04:00 0°C° 0 mm 1 mps 747 mmHg 58%
05:00 0°C° 0 mm 1 mps 747 mmHg 58%
06:00 0°C° 0 mm 1 mps 747 mmHg 58%
07:00 0°C° 0 mm 1 mps 747 mmHg 58%
08:00 0°C° 0 mm 0 mps 747 mmHg 58%
09:00 0°C° 0 mm 0 mps 747 mmHg 57%
10:00 +2°C° 0 mm 1 mps 747 mmHg 55%
11:00 +3°C° 0 mm 1 mps 746 mmHg 52%
12:00 +4°C° 0 mm 1 mps 746 mmHg 49%
13:00 +5°C° 0 mm 1 mps 745 mmHg 50%
14:00 +5°C° 0 mm 1 mps 745 mmHg 52%
15:00 +4°C° 0 mm 2 mps 745 mmHg 54%
16:00 +3°C° 0 mm 1 mps 745 mmHg 60%
17:00 +2°C° 0 mm 1 mps 746 mmHg 65%
18:00 0°C° 0 mm 0 mps 746 mmHg 71%
19:00 -1°C° 0 mm 0 mps 746 mmHg 71%
20:00 -1°C° 0 mm 0 mps 746 mmHg 71%
21:00 -1°C° 0 mm 0 mps 746 mmHg 72%
22:00 -1°C° 0 mm 0 mps 746 mmHg 71%
23:00 -1°C° 0 mm 0 mps 745 mmHg 71%

24 January, Sunday

Time Temperature Precipitation Wind Pressure Humidity
00:00 -1°C° 0 mm 0 mps 745 mmHg 71%
01:00 -1°C° 0 mm 0 mps 745 mmHg 71%
02:00 -1°C° 0 mm 0 mps 745 mmHg 70%
03:00 -2°C° 0 mm 0 mps 744 mmHg 70%
04:00 -2°C° 0 mm 0 mps 744 mmHg 69%
05:00 -2°C° 0 mm 0 mps 744 mmHg 69%
06:00 -2°C° 0 mm 0 mps 744 mmHg 69%
07:00 -1°C° 0 mm 0 mps 744 mmHg 67%
08:00 -1°C° 0 mm 0 mps 744 mmHg 65%
09:00 0°C° 0 mm 0 mps 744 mmHg 62%
10:00 +2°C° 0 mm 1 mps 744 mmHg 59%
11:00 +3°C° 0 mm 1 mps 743 mmHg 55%
12:00 +5°C° 0 mm 1 mps 743 mmHg 52%
13:00 +5°C° 0 mm 1 mps 742 mmHg 51%
14:00 +5°C° 0 mm 1 mps 742 mmHg 51%
15:00 +5°C° 0 mm 2 mps 742 mmHg 51%
16:00 +3°C° 0 mm 2 mps 742 mmHg 58%
17:00 +3°C° 0 mm 1 mps 742 mmHg 65%
18:00 +1°C° 0 mm 1 mps 743 mmHg 72%
19:00 +1°C° 0 mm 1 mps 742 mmHg 75%
20:00 +1°C° 0 mm 1 mps 742 mmHg 77%
21:00 0°C° 0 mm 1 mps 742 mmHg 79%
22:00 0°C° 0 mm 1 mps 742 mmHg 78%
23:00 +1°C° 0 mm 1 mps 742 mmHg 77%

25 January, Monday

Time Temperature Precipitation Wind Pressure Humidity
00:00 +1°C° 0 mm 1 mps 741 mmHg 76%
01:00 +1°C° 0 mm 1 mps 741 mmHg 76%
02:00 +1°C° 0 mm 1 mps 741 mmHg 75%
03:00 +1°C° 0 mm 1 mps 741 mmHg 74%
04:00 0°C° 0 mm 0 mps 741 mmHg 74%
05:00 0°C° 0 mm 0 mps 741 mmHg 73%
06:00 0°C° 0 mm 0 mps 741 mmHg 73%
07:00 +1°C° 0 mm 0 mps 741 mmHg 71%
08:00 +1°C° 0 mm 0 mps 742 mmHg 69%
09:00 +2°C° 0 mm 0 mps 742 mmHg 67%
10:00 +4°C° 0 mm 1 mps 741 mmHg 63%
11:00 +5°C° 0 mm 1 mps 741 mmHg 59%
12:00 +6°C° 0 mm 1 mps 740 mmHg 55%
13:00 +6°C° 0 mm 1 mps 740 mmHg 55%
14:00 +7°C° 0 mm 1 mps 740 mmHg 56%
15:00 +7°C° 0 mm 1 mps 740 mmHg 56%
16:00 +6°C° 0 mm 1 mps 740 mmHg 63%
17:00 +4°C° 0 mm 1 mps 740 mmHg 69%
18:00 +3°C° 0 mm 1 mps 740 mmHg 76%
19:00 +2°C° 0 mm 1 mps 740 mmHg 77%
20:00 +2°C° 0 mm 1 mps 740 mmHg 78%
21:00 +1°C° 0 mm 0 mps 740 mmHg 79%
22:00 +1°C° 0 mm 0 mps 740 mmHg 78%
23:00 +1°C° 0 mm 0 mps 740 mmHg 77%

26 January, Tuesday

Time Temperature Precipitation Wind Pressure Humidity
00:00 +1°C° 0 mm 0 mps 740 mmHg 76%
01:00 +1°C° 0 mm 0 mps 740 mmHg 75%
02:00 +1°C° 0 mm 0 mps 741 mmHg 74%
03:00 +2°C° 0 mm 1 mps 741 mmHg 73%
04:00 +2°C° 0 mm 1 mps 741 mmHg 72%
05:00 +3°C° 0 mm 1 mps 741 mmHg 70%
06:00 +3°C° 0 mm 1 mps 741 mmHg 69%
07:00 +3°C° 0 mm 1 mps 741 mmHg 67%
08:00 +4°C° 0 mm 1 mps 741 mmHg 64%
09:00 +4°C° 0 mm 1 mps 741 mmHg 62%
10:00 +6°C° 0 mm 1 mps 740 mmHg 59%
11:00 +7°C° 0 mm 1 mps 739 mmHg 57%
12:00 +8°C° 0 mm 1 mps 739 mmHg 54%
13:00 +8°C° 0 mm 1 mps 738 mmHg 56%
14:00 +7°C° 0 mm 2 mps 738 mmHg 58%
15:00 +7°C° 0 mm 2 mps 737 mmHg 60%
16:00 +5°C° 0 mm 2 mps 737 mmHg 65%
17:00 +4°C° 0 mm 2 mps 737 mmHg 69%
18:00 +3°C° 0 mm 2 mps 736 mmHg 74%
19:00 +4°C° 0 mm 1 mps 736 mmHg 75%
20:00 +3°C° 0 mm 1 mps 736 mmHg 75%
21:00 +3°C° 0 mm 1 mps 736 mmHg 76%
22:00 +3°C° 0 mm 1 mps 736 mmHg 78%
23:00 +3°C° 0 mm 1 mps 735 mmHg 81%
Show more